GW5177 Weather Reports


Display with metric or nautical units.
time (UTC)temp
F
wind
direction
speed
MPH
gust
MPH
rain 1hr
in
rain 24hr
in
rain mn
in
humidity
%
barometer
mb
20260504130557 56 5 0.0 4.0 0.00 0.00 0.00 71 1015.5
20260504110444 41 59 0.0 0.0 0.00 0.00 0.00 99 1015.4
20260504100401 39 59 0.0 0.0 0.00 0.00 0.00 99 1015.3
20260504081754 42 59 0.0 0.0 0.00 0.00 0.00 98 1015.8
20260504081250 42 59 0.0 0.0 0.00 0.00 0.00 98 1015.9
20260504080747 42 59 0.0 0.0 0.00 0.00 0.00 98 1015.9
20260504080243 42 59 0.0 0.0 0.00 0.00 0.00 98 1015.9
20260504070211 44 59 0.0 0.0 0.00 0.00 0.00 97 1016.5
20260504060131 46 59 0.0 0.0 0.00 0.00 0.00 95 1016.9
20260504050559 47 59 0.0 0.0 0.00 0.00 0.00 93 1017.4
20260504045553 47 59 0.0 0.0 0.00 0.00 0.00 92 1017.6
20260504045048 47 59 0.0 0.0 0.00 0.00 0.00 92 1017.4
20260504044546 47 59 0.0 0.0 0.00 0.00 0.00 91 1017.7
20260504044043 47 59 0.0 0.0 0.00 0.00 0.00 91 1017.7
20260504043540 47 59 0.0 0.0 0.00 0.00 0.00 90 1017.6
20260504043037 47 59 0.0 0.0 0.00 0.00 0.00 90 1017.5
20260504042534 47 59 0.0 0.0 0.00 0.00 0.00 90 1017.5
20260504042031 47 59 0.0 0.0 0.00 0.00 0.00 89 1017.7
20260504041527 47 59 0.0 0.0 0.00 0.00 0.00 88 1017.6
20260504041023 47 59 0.0 0.0 0.00 0.00 0.00 87 1017.8
20260504040521 48 59 0.0 0.0 0.00 0.00 0.00 87 1017.8
20260504040018 48 59 0.0 0.0 0.00 0.00 0.00 86 1017.7
20260504035515 48 59 0.0 0.0 0.00 0.00 0.00 84 1017.7
20260504035011 48 59 0.0 0.0 0.00 0.00 0.00 82 1017.7
20260504034509 48 59 0.0 0.0 0.00 0.00 0.00 81 1017.4
20260504034005 48 59 0.0 1.0 0.00 0.00 0.00 80 1017.4
20260504033503 48 57 0.0 0.0 0.00 0.00 0.00 80 1017.5
20260504033000 48 57 0.0 0.0 0.00 0.00 0.00 81 1017.8
20260504032457 48 57 0.0 0.0 0.00 0.00 0.00 81 1017.7
20260504031954 47 57 0.0 0.0 0.00 0.00 0.00 81 1017.8
20260504031450 47 57 0.0 0.0 0.00 0.00 0.00 82 1017.6
20260504030947 47 57 0.0 0.0 0.00 0.00 0.00 80 1017.4
20260504030444 47 57 0.0 0.0 0.00 0.00 0.00 79 1017.7
20260504025940 47 57 0.0 0.0 0.00 0.00 0.00 79 1017.8
20260504025437 47 57 0.0 0.0 0.00 0.00 0.00 78 1017.7
20260504024934 47 57 0.0 0.0 0.00 0.00 0.00 77 1017.7
20260504024431 48 57 0.0 0.0 0.00 0.00 0.00 77 1017.7
20260504023928 48 57 0.0 0.0 0.00 0.00 0.00 78 1017.5
20260504023425 48 57 0.0 0.0 0.00 0.00 0.00 78 1017.6
20260504022920 48 57 0.0 0.0 0.00 0.00 0.00 77 1017.7
20260504022417 48 57 0.0 0.0 0.00 0.00 0.00 78 1017.4
20260504021914 47 57 0.0 0.0 0.00 0.00 0.00 77 1017.3
20260504021411 47 57 0.0 0.0 0.00 0.00 0.00 77 1017.2
20260504020908 47 57 0.0 0.0 0.00 0.00 0.00 78 1017.2
20260504020404 47 57 0.0 0.0 0.00 0.00 0.00 76 1017.1
20260504015901 47 57 0.0 0.0 0.00 0.00 0.00 76 1017.1
20260504015357 47 57 0.0 0.0 0.00 0.00 0.00 76 1017.1
20260504014853 47 57 0.0 0.0 0.00 0.00 0.00 75 1017.0
20260504014349 47 57 0.0 0.0 0.00 0.00 0.00 74 1017.3
20260504013847 47 57 0.0 0.0 0.00 0.00 0.00 74 1017.0
20260504013345 47 57 0.0 0.0 0.00 0.00 0.00 72 1017.0
20260504012841 47 57 0.0 0.0 0.00 0.00 0.00 72 1017.2
20260504012339 47 57 0.0 0.0 0.00 0.00 0.00 72 1016.9
20260504011836 48 57 0.0 0.0 0.00 0.00 0.00 69 1016.9
20260504011332 48 57 0.0 0.0 0.00 0.00 0.00 70 1017.0
20260504010829 49 57 0.0 0.0 0.00 0.00 0.00 68 1017.1
20260504010324 49 57 0.0 0.0 0.00 0.00 0.00 69 1017.2
20260504005821 49 57 0.0 0.0 0.00 0.00 0.00 67 1017.2
20260504005318 49 57 0.0 0.0 0.00 0.00 0.00 67 1017.2
20260504004816 50 57 0.0 0.0 0.00 0.00 0.00 66 1017.1
20260504004313 50 57 0.0 0.0 0.00 0.00 0.00 64 1017.2
20260504003809 50 57 0.0 0.0 0.00 0.00 0.00 63 1017.1
20260504003307 51 57 0.0 0.0 0.00 0.00 0.00 62 1017.0
20260504002803 51 57 0.0 0.0 0.00 0.00 0.00 61 1016.9
20260504002300 52 57 0.0 0.0 0.00 0.00 0.00 58 1016.8
20260504001758 52 57 0.0 0.0 0.00 0.00 0.00 58 1016.9
20260504001254 53 57 0.0 0.0 0.00 0.00 0.00 56 1017.0
20260504000751 54 57 0.0 0.0 0.00 0.00 0.00 54 1017.0
20260504000248 55 57 0.0 0.0 0.00 0.00 0.00 56 1016.9
20260503235746 56 57 0.0 0.0 0.00 0.00 0.00 48 1016.8
20260503235243 56 57 0.0 0.0 0.00 0.00 0.00 49 1016.9
20260503234741 57 57 0.0 0.0 0.00 0.00 0.00 48 1016.8
20260503234239 58 57 0.0 0.0 0.00 0.00 0.00 47 1016.9
20260503233735 58 57 0.0 0.0 0.00 0.00 0.00 49 1016.8
20260503233231 59 57 0.0 0.0 0.00 0.00 0.00 47 1016.8
20260503232728 59 57 0.0 0.0 0.00 0.00 0.00 47 1016.7
20260503232226 60 57 0.0 0.0 0.00 0.00 0.00 45 1017.2
20260503231724 60 57 0.0 0.0 0.00 0.00 0.00 38 1017.1
20260503231220 61 57 0.0 0.0 0.00 0.00 0.00 41 1017.0
20260503230716 61 57 0.0 1.0 0.00 0.00 0.00 39 1017.1
20260503230214 62 57 0.0 0.0 0.00 0.00 0.00 41 1017.5
20260503225711 62 57 0.0 0.0 0.00 0.00 0.00 37 1017.3
20260503225206 62 268 0.0 1.0 0.00 0.00 0.00 36 1017.2
20260503224704 62 267 0.0 1.0 0.00 0.00 0.00 34 1017.4
20260503224201 62 268 0.0 1.0 0.00 0.00 0.00 33 1017.4
20260503223659 63 290 0.0 3.0 0.00 0.00 0.00 34 1017.7
20260503223156 63 341 1.0 3.0 0.00 0.00 0.00 35 1017.6
20260503222652 64 242 0.0 0.0 0.00 0.00 0.00 37 1017.3
20260503222150 64 246 0.0 2.0 0.00 0.00 0.00 34 1017.1
20260503221648 66 294 0.0 2.0 0.00 0.00 0.00 32 1017.5
20260503221145 67 38 1.0 1.0 0.00 0.00 0.00 32 1017.3
20260503220642 65 41 1.0 2.0 0.00 0.00 0.00 32 1017.2
20260503220138 67 58 1.0 2.0 0.00 0.00 0.00 31 1017.5
20260503215636 68 301 2.0 3.0 0.00 0.00 0.00 34 1017.3
20260503215132 67 338 1.0 6.0 0.00 0.00 0.00 32 1017.5
20260503214631 69 230 0.0 3.0 0.00 0.00 0.00 31 1017.5
20260503214126 69 129 0.0 3.0 0.00 0.00 0.00 29 1017.4
20260503213626 67 121 2.0 4.0 0.00 0.00 0.00 30 1017.7
20260503213122 67 278 0.0 2.0 0.00 0.00 0.00 32 1017.5
20260503212620 68 144 1.0 2.0 0.00 0.00 0.00 30 1017.5
20260503212117 69 264 2.0 3.0 0.00 0.00 0.00 29 1017.4
20260503211615 70 244 0.0 3.0 0.00 0.00 0.00 35 1017.6
20260503211110 72 151 1.0 1.0 0.00 0.00 0.00 32 1017.4
20260503210606 69 79 0.0 1.0 0.00 0.00 0.00 40 1017.6
20260503205553 69 252 0.0 3.0 0.00 0.00 0.00 36 1017.8
20260503205049 67 177 1.0 3.0 0.00 0.00 0.00 31 1017.7
20260503204546 67 13 2.0 2.0 0.00 0.00 0.00 33 1017.7
20260503204043 69 232 1.0 3.0 0.00 0.00 0.00 34 1017.8
20260503203535 67 11 1.0 2.0 0.00 0.00 0.00 30 1017.9
20260503203032 68 299 1.0 2.0 0.00 0.00 0.00 31 1018.0
20260503202530 69 180 1.0 3.0 0.00 0.00 0.00 33 1018.1
20260503202027 69 8 2.0 2.0 0.00 0.00 0.00 33 1018.2
20260503201520 70 137 0.0 4.0 0.00 0.00 0.00 33 1018.3
20260503201017 67 62 0.0 1.0 0.00 0.00 0.00 37 1018.3
20260503200513 66 122 1.0 2.0 0.00 0.00 0.00 33 1018.7
20260503200009 66 74 0.0 2.0 0.00 0.00 0.00 40 1018.6
20260503195506 67 239 2.0 7.0 0.00 0.00 0.00 31 1018.6
20260503195002 66 275 0.0 1.0 0.00 0.00 0.00 37 1018.7
20260503194500 66 246 1.0 1.0 0.00 0.00 0.00 36 1019.0
20260503193955 65 90 0.0 7.0 0.00 0.00 0.00 40 1018.9
20260503193451 66 273 0.0 6.0 0.00 0.00 0.00 33 1019.2
20260503192946 68 198 1.0 3.0 0.00 0.00 0.00 31 1019.2
20260503192443 67 200 0.0 1.0 0.00 0.00 0.00 37 1019.4
20260503191938 66 76 0.0 0.0 0.00 0.00 0.00 38 1019.3
20260503191436 65 220 0.0 1.0 0.00 0.00 0.00 39 1019.6
20260503190932 67 296 1.0 2.0 0.00 0.00 0.00 35 1019.7
20260503190430 65 63 0.0 1.0 0.00 0.00 0.00 35 1019.8
20260503185927 63 105 0.0 2.0 0.00 0.00 0.00 36 1019.8
20260503185423 64 150 1.0 4.0 0.00 0.00 0.00 36 1019.7
20260503184922 65 238 1.0 2.0 0.00 0.00 0.00 37 1020.0
20260503184420 63 256 1.0 3.0 0.00 0.00 0.00 43 1020.0
20260503183916 63 254 1.0 4.0 0.00 0.00 0.00 37 1020.2
20260503183412 65 355 0.0 1.0 0.00 0.00 0.00 44 1020.4
20260503182910 64 108 0.0 3.0 0.00 0.00 0.00 44 1020.3
20260503182409 62 111 0.0 1.0 0.00 0.00 0.00 45 1020.4
20260503181905 61 216 2.0 4.0 0.00 0.00 0.00 43 1020.4
20260503181402 62 250 3.0 4.0 0.00 0.00 0.00 38 1020.6
20260503180858 62 212 0.0 1.0 0.00 0.00 0.00 46 1020.7
20260503180356 63 271 3.0 3.0 0.00 0.00 0.00 36 1020.7
20260503175853 64 228 0.0 2.0 0.00 0.00 0.00 47 1020.8
20260503175351 60 55 0.0 3.0 0.00 0.00 0.00 46 1020.9
20260503174846 61 174 1.0 3.0 0.00 0.00 0.00 35 1020.9
20260503174345 62 264 1.0 6.0 0.00 0.00 0.00 36 1020.8
20260503173845 62 25 0.0 3.0 0.00 0.00 0.00 51 1021.0
20260503173342 60 84 0.0 2.0 0.00 0.00 0.00 47 1020.9
20260503172838 62 226 2.0 4.0 0.00 0.00 0.00 37 1021.1
20260503172336 60 61 0.0 2.0 0.00 0.00 0.00 50 1021.3
20260503171832 59 249 1.0 6.0 0.00 0.00 0.00 41 1021.1
20260503171329 58 294 3.0 6.0 0.00 0.00 0.00 41 1021.3
20260503170826 60 64 2.0 4.0 0.00 0.00 0.00 38 1021.2
20260503170323 61 76 0.0 1.0 0.00 0.00 0.00 43 1021.3
20260503150715 55 227 0.0 3.0 0.00 0.00 0.00 55 1022.4
20260503150211 54 280 0.0 4.0 0.00 0.00 0.00 49 1022.4
20260503140136 52 80 1.0 2.0 0.00 0.00 0.00 56 1022.6